This is the latest recevied weather packets stored in our database for station/object KB4RFE. If no packets are shown the sender has not sent any weather packets the latest 10 day(s).
| Time | Temp. | Humidity | Pressure | Rain* | Wind** | Luminosity | Snow |
|---|---|---|---|---|---|---|---|
| 1788618107 | 30.56° C | 78% | 1016.8 hPa | 0 mm | - | 129 W/m² | - |
| 1788617802 | 30.56° C | 79% | 1016.9 hPa | 0 mm | - | 602 W/m² | - |
| 1788617498 | 30.56° C | 79% | 1016.8 hPa | 0 mm | - | 113 W/m² | - |
| 1788617193 | 30.56° C | 79% | 1016.7 hPa | 0 mm | - | 335 W/m² | - |
| 1788616893 | 30.56° C | 78% | 1016.6 hPa | 0 mm | - | 537 W/m² | - |
| 1788616588 | 30.56° C | 80% | 1016.8 hPa | 0 mm | - | 394 W/m² | - |
| 1788616283 | 30.56° C | 79% | 1016.9 hPa | 0 mm | - | 312 W/m² | - |
| 1788615978 | 30° C | 83% | 1016.7 hPa | 0 mm | - | 277 W/m² | - |
| 1788615677 | 29.44° C | 84% | 1017 hPa | 0 mm | - | 264 W/m² | - |
| 1788615373 | 28.89° C | 86% | 1017 hPa | 0 mm | - | 203 W/m² | - |
| 1788615073 | 28.89° C | 87% | 1017 hPa | 0 mm | - | 95 W/m² | - |
| 1788614772 | 28.33° C | 88% | 1016.9 hPa | 0 mm | - | 207 W/m² | - |
| 1788614467 | 28.33° C | 89% | 1016.9 hPa | 0 mm | - | 66 W/m² | - |
| 1788614162 | 28.33° C | 91% | 1016.9 hPa | 0 mm | - | 74 W/m² | - |
| 1788613857 | 27.78° C | 91% | 1016.9 hPa | 0 mm | - | 111 W/m² | - |
| 1788613556 | 27.78° C | 92% | 1017 hPa | 0 mm | - | 69 W/m² | - |
| 1788613252 | 27.22° C | 94% | 1017.2 hPa | 0 mm | - | 73 W/m² | - |
| 1788612951 | 27.22° C | 96% | 1017 hPa | 0 mm | - | 68 W/m² | - |
| 1788612647 | 26.67° C | 97% | 1017 hPa | 0 mm | - | 50 W/m² | - |
| 1788612343 | 26.67° C | 97% | 1016.9 hPa | 0 mm | - | 42 W/m² | - |
| 1788612039 | 26.67° C | 98% | 1017.1 hPa | 0 mm | - | 41 W/m² | - |
| 1788611734 | 26.67° C | 98% | 1017 hPa | 0 mm | - | 42 W/m² | - |
| 1788611431 | 26.11° C | 98% | 1016.9 hPa | 0 mm | - | 38 W/m² | - |
| 1788611130 | 26.11° C | 98% | 1016.6 hPa | 0 mm | - | 37 W/m² | - |
| 1788610825 | 26.11° C | 98% | 1016.8 hPa | 0 mm | - | 35 W/m² | - |
* Rain latest hour (hover to see other rain measurements)
** Current wind speed in m/s (hover to see current wind gust speed)